EW7205 Weather Reports


Display with metric or nautical units.
time (UTC)temp
F
wind
direction
speed
MPH
gust
MPH
rain 1hr
in
rain 24hr
in
rain mn
in
humidity
%
barometer
mb
20181121113004 58 0 0.0 1.0 0.00 0.20 0.19 92 1016.6
20181121112504 58 0 0.0 2.0 0.00 0.20 0.19 92 1016.4
20181121112004 58 0 0.0 2.0 0.00 0.20 0.19 92 1016.7
20181121111504 58 0 0.0 1.0 0.00 0.20 0.19 92 1016.5
20181121111004 58 0 0.0 1.0 0.00 0.20 0.19 92 1016.6
20181121110504 58 0 0.0 1.0 0.00 0.20 0.19 92 1016.6
20181121110004 58 0 0.0 2.0 0.00 0.20 0.19 92 1016.7
20181121105504 58 0 0.0 2.0 0.00 0.20 0.19 92 1016.6
20181121105005 58 0 0.0 2.0 0.00 0.20 0.19 92 1016.5
20181121104504 58 0 0.0 2.0 0.00 0.20 0.19 92 1016.4
20181121104004 58 0 0.0 1.0 0.00 0.20 0.19 92 1016.3
20181121103504 58 0 0.0 1.0 0.00 0.20 0.19 92 1016.3
20181121103004 58 0 0.0 1.0 0.00 0.20 0.19 92 1016.2
20181121102503 58 0 0.0 1.0 0.00 0.20 0.19 92 1016.3
20181121102004 58 0 0.0 1.0 0.00 0.20 0.19 92 1016.3
20181121101504 58 0 0.0 1.0 0.00 0.20 0.19 92 1016.2
20181121101003 58 0 0.0 1.0 0.00 0.20 0.19 92 1015.9
20181121100504 58 0 0.0 1.0 0.00 0.20 0.19 91 1015.9
20181121100005 58 0 0.0 2.0 0.00 0.20 0.19 91 1016.1
20181121095503 58 0 0.0 2.0 0.00 0.20 0.19 91 1015.7
20181121095004 58 0 0.0 1.0 0.00 0.20 0.19 91 1015.9
20181121094505 58 0 0.0 2.0 0.00 0.20 0.19 91 1015.8
20181121094003 58 75 0.0 2.0 0.00 0.20 0.19 91 1015.8
20181121093504 58 51 0.0 2.0 0.00 0.20 0.19 91 1015.6
20181121093004 58 0 0.0 1.0 0.00 0.20 0.19 91 1015.7
20181121092503 58 0 0.0 0.0 0.00 0.20 0.19 91 1015.5
20181121092004 58 0 0.0 0.0 0.00 0.20 0.19 91 1015.4
20181121091504 58 0 0.0 0.0 0.00 0.20 0.19 90 1015.4
20181121091003 58 0 0.0 0.0 0.00 0.20 0.19 90 1015.2
20181121090504 58 0 0.0 0.0 0.00 0.20 0.19 90 1015.4
20181121090006 58 0 0.0 1.0 0.00 0.20 0.19 90 1015.3
20181121085504 58 0 0.0 1.0 0.00 0.20 0.19 90 1015.2
20181121085004 58 0 0.0 1.0 0.00 0.20 0.19 89 1015.2
20181121084505 58 0 0.0 1.0 0.00 0.20 0.19 89 1015.1
20181121084003 58 0 0.0 1.0 0.00 0.20 0.19 89 1015.1
20181121083504 58 0 0.0 0.0 0.00 0.20 0.19 89 1015.1
20181121083005 58 0 0.0 1.0 0.00 0.20 0.19 88 1014.9
20181121082503 59 0 0.0 2.0 0.00 0.20 0.19 88 1014.8
20181121082004 59 0 0.0 2.0 0.00 0.20 0.19 87 1014.9
20181121081505 59 0 0.0 1.0 0.00 0.20 0.19 87 1014.8
20181121081003 60 0 0.0 1.0 0.00 0.20 0.19 87 1014.5
20181121080504 60 0 0.0 2.0 0.00 0.20 0.19 88 1014.5
20181121080005 60 0 0.0 2.0 0.00 0.20 0.19 88 1014.5
20181121075503 60 0 0.0 2.0 0.00 0.20 0.19 88 1014.5
20181121075004 60 0 0.0 0.0 0.00 0.20 0.19 88 1014.8
20181121074505 60 0 0.0 1.0 0.00 0.20 0.19 88 1014.3
20181121074004 60 0 0.0 1.0 0.00 0.20 0.19 88 1014.4
20181121073503 60 0 0.0 2.0 0.00 0.20 0.19 88 1014.5
20181121073005 60 0 0.0 2.0 0.00 0.20 0.19 88 1014.2
20181121072504 60 0 0.0 1.0 0.00 0.20 0.19 88 1014.4
20181121072003 60 120 0.0 2.0 0.00 0.20 0.19 88 1014.4
20181121071505 60 113 0.0 2.0 0.00 0.20 0.19 89 1014.3
20181121071003 60 0 0.0 1.0 0.00 0.20 0.19 89 1014.2
20181121070504 60 0 0.0 1.0 0.00 0.20 0.19 90 1014.3
20181121070006 61 0 0.0 1.0 0.01 0.20 0.19 90 1014.1
20181121065503 61 0 0.0 1.0 0.01 0.20 0.19 90 1014.0
20181121065004 61 0 0.0 1.0 0.01 0.20 0.19 90 1014.0
20181121064506 61 0 0.0 1.0 0.01 0.20 0.19 90 1014.2
20181121064004 61 0 0.0 1.0 0.01 0.20 0.19 91 1014.2
20181121063504 61 0 0.0 1.0 0.01 0.20 0.19 92 1014.2
20181121063006 60 0 0.0 1.0 0.01 0.20 0.19 92 1014.1
20181121062504 60 0 0.0 1.0 0.01 0.20 0.19 92 1014.2
20181121062005 60 0 0.0 1.0 0.01 0.20 0.19 92 1014.0
20181121061506 60 0 0.0 1.0 0.01 0.20 0.19 92 1014.3
20181121061004 60 0 0.0 0.0 0.01 0.20 0.19 92 1014.0
20181121060504 60 0 0.0 1.0 0.01 0.20 0.19 92 1014.4
20181121060006 60 0 0.0 1.0 0.00 0.19 0.18 92 1014.5
20181121055504 60 0 0.0 1.0 0.00 0.19 0.18 92 1014.8
20181121055003 60 0 0.0 0.0 0.00 0.19 0.18 93 1014.7
20181121054505 60 0 0.0 1.0 0.00 0.19 0.18 93 1014.5
20181121054004 60 0 0.0 1.0 0.00 0.19 0.18 93 1014.3
20181121053504 59 0 0.0 2.0 0.00 0.19 0.18 92 1014.5
20181121053004 59 0 0.0 2.0 0.01 0.19 0.18 92 1014.5
20181121052504 59 0 0.0 2.0 0.01 0.19 0.18 92 1014.5
20181121052004 60 0 0.0 2.0 0.01 0.19 0.18 93 1014.6
20181121051504 59 0 0.0 2.0 0.01 0.19 0.18 93 1014.6
20181121051004 59 0 0.0 2.0 0.01 0.19 0.18 93 1014.3
20181121050504 59 0 0.0 2.0 0.01 0.19 0.18 93 1014.5
20181121050004 59 0 0.0 2.0 0.01 0.19 0.18 92 1014.5
20181121045504 59 0 0.0 2.0 0.01 0.19 0.18 93 1014.5
20181121045004 59 0 0.0 2.0 0.01 0.19 0.18 93 1014.6
20181121044504 59 0 0.0 1.0 0.01 0.19 0.18 93 1014.6
20181121044003 58 0 0.0 1.0 0.01 0.19 0.18 93 1014.7
20181121043503 58 0 0.0 2.0 0.01 0.19 0.18 92 1014.6
20181121043006 58 82 0.0 2.0 0.00 0.18 0.17 92 1014.7
20181121042504 58 82 0.0 2.0 0.00 0.18 0.17 92 1014.7
20181121042003 58 0 0.0 2.0 0.00 0.18 0.17 91 1014.7
20181121041505 59 0 0.0 2.0 0.00 0.18 0.17 91 1014.6
20181121041004 59 0 0.0 2.0 0.01 0.18 0.17 91 1014.8
20181121040504 59 0 0.0 2.0 0.01 0.18 0.17 90 1014.7
20181121040006 59 0 0.0 2.0 0.01 0.18 0.17 90 1014.8
20181121035504 59 0 0.0 0.0 0.01 0.18 0.17 90 1014.5
20181121035004 59 0 0.0 1.0 0.01 0.18 0.17 90 1014.5
20181121034505 59 0 0.0 1.0 0.01 0.18 0.17 90 1014.6
20181121034004 59 0 0.0 1.0 0.01 0.18 0.17 90 1014.5
20181121033504 59 0 0.0 1.0 0.01 0.18 0.17 90 1014.5
20181121033004 59 0 0.0 1.0 0.01 0.18 0.17 90 1014.7
20181121032504 59 0 0.0 1.0 0.01 0.18 0.17 91 1014.5
20181121032004 59 0 0.0 1.0 0.01 0.18 0.17 91 1014.6
20181121031504 59 0 0.0 1.0 0.01 0.18 0.17 91 1014.5
20181121031004 59 0 0.0 1.0 0.00 0.17 0.15 91 1014.7
20181121030504 58 0 0.0 1.0 0.00 0.17 0.15 91 1014.7
20181121030005 58 0 0.0 1.0 0.00 0.17 0.15 91 1014.8
20181121025503 58 0 0.0 1.0 0.00 0.17 0.15 91 1014.9
20181121025004 58 0 0.0 1.0 0.00 0.17 0.15 90 1015.0
20181121024505 58 0 0.0 1.0 0.00 0.17 0.15 90 1015.2
20181121024003 58 0 0.0 1.0 0.00 0.17 0.15 90 1015.3
20181121023504 58 0 0.0 0.0 0.00 0.17 0.15 89 1015.5
20181121023005 58 0 0.0 0.0 0.00 0.17 0.15 89 1015.4
20181121022503 58 0 0.0 0.0 0.00 0.17 0.15 89 1015.7
20181121022003 58 0 0.0 0.0 0.00 0.17 0.15 89 1015.7
20181121021505 58 0 0.0 0.0 0.00 0.17 0.15 88 1015.9
20181121021003 58 0 0.0 0.0 0.00 0.17 0.15 88 1015.8
20181121020503 58 0 0.0 1.0 0.00 0.17 0.15 88 1015.9
20181121020005 58 169 0.0 2.0 0.00 0.17 0.15 88 1015.7
20181121015503 58 167 0.0 2.0 0.00 0.17 0.15 88 1015.7
20181121015003 58 0 0.0 1.0 0.00 0.17 0.15 88 1015.9
20181121014505 58 0 0.0 1.0 0.00 0.17 0.15 88 1015.8
20181121014004 58 0 0.0 1.0 0.00 0.17 0.15 88 1015.9
20181121013504 58 0 0.0 1.0 0.00 0.17 0.15 88 1016.2
20181121013005 57 0 0.0 2.0 0.00 0.17 0.15 87 1016.1
20181121012504 57 0 0.0 2.0 0.00 0.17 0.15 87 1016.2
20181121012003 57 0 0.0 1.0 0.00 0.17 0.15 87 1016.3
20181121011504 57 0 0.0 1.0 0.00 0.17 0.15 87 1016.1
20181121011004 57 0 0.0 1.0 0.00 0.17 0.15 88 1016.1
20181121010504 57 0 0.0 1.0 0.00 0.17 0.15 88 1016.1
20181121010005 57 0 0.0 1.0 0.00 0.17 0.15 88 1016.0
20181121005504 57 0 0.0 1.0 0.00 0.17 0.15 89 1016.0
20181121005004 57 0 0.0 2.0 0.00 0.17 0.15 90 1015.7
20181121004504 57 0 0.0 2.0 0.00 0.17 0.15 91 1015.8
20181121004004 57 0 0.0 2.0 0.00 0.17 0.15 91 1015.7
20181121003504 57 0 0.0 2.0 0.00 0.17 0.15 91 1015.3
20181121003004 57 0 0.0 2.0 0.00 0.17 0.15 91 1015.5
20181121002504 57 0 0.0 2.0 0.01 0.17 0.15 92 1015.4
20181121002004 57 0 0.0 2.0 0.01 0.17 0.15 93 1015.3
20181121001505 57 0 0.0 2.0 0.01 0.17 0.15 93 1015.1
20181121001003 57 0 0.0 2.0 0.01 0.17 0.15 93 1015.3
20181121000504 57 0 0.0 2.0 0.01 0.17 0.15 93 1015.1
20181121000005 57 0 0.0 2.0 0.01 0.17 0.15 93 1015.3
20181120235503 57 0 0.0 2.0 0.01 0.17 0.15 93 1015.2
20181120235004 57 0 0.0 2.0 0.01 0.17 0.15 93 1015.3
20181120234505 57 0 0.0 2.0 0.02 0.17 0.15 93 1015.3
20181120234003 57 0 0.0 2.0 0.02 0.17 0.15 93 1015.2
20181120233504 57 196 0.0 2.0 0.02 0.17 0.15 93 1015.2
20181120233005 57 96 0.0 2.0 0.02 0.17 0.15 93 1015.1
20181120232503 57 91 0.0 2.0 0.01 0.15 0.14 94 1014.9
20181120232003 57 144 0.0 4.0 0.01 0.15 0.14 93 1015.1
20181120231505 57 142 0.0 4.0 0.02 0.15 0.14 93 1015.0
20181120231003 57 0 0.0 2.0 0.02 0.15 0.14 93 1015.0
20181120230503 57 0 0.0 1.0 0.02 0.15 0.14 93 1015.1
20181120230005 57 0 0.0 1.0 0.02 0.15 0.14 93 1014.6
20181120225504 57 0 0.0 2.0 0.04 0.15 0.14 93 1015.0
20181120225003 57 0 0.0 2.0 0.02 0.14 0.13 93 1014.7
20181120224505 57 0 0.0 2.0 0.02 0.14 0.13 93 1014.7
20181120224004 58 0 0.0 2.0 0.02 0.14 0.13 93 1014.7
20181120223504 58 0 0.0 1.0 0.02 0.14 0.13 93 1015.0
20181120223004 57 0 0.0 1.0 0.02 0.14 0.13 93 1015.2
20181120222504 57 0 0.0 1.0 0.02 0.14 0.13 93 1015.0
20181120222004 57 0 0.0 1.0 0.02 0.14 0.13 92 1014.8
20181120221504 57 0 0.0 2.0 0.02 0.13 0.12 92 1014.8
20181120221004 57 0 0.0 2.0 0.02 0.13 0.12 92 1014.7
20181120220504 57 0 0.0 1.0 0.02 0.13 0.12 92 1014.9
20181120220005 57 0 0.0 2.0 0.02 0.13 0.12 92 1015.1
20181120215503 57 0 0.0 2.0 0.01 0.12 0.11 92 1015.1
20181120215004 57 0 0.0 2.0 0.01 0.12 0.11 92 1015.0
20181120214505 57 0 0.0 2.0 0.02 0.12 0.11 92 1015.0
20181120214003 57 0 0.0 2.0 0.02 0.12 0.11 92 1015.1
20181120213504 57 0 0.0 1.0 0.02 0.12 0.11 92 1015.1
20181120213006 57 0 0.0 1.0 0.02 0.12 0.11 92 1015.1
20181120212504 58 0 0.0 1.0 0.02 0.12 0.11 92 1015.1
20181120212003 58 0 0.0 2.0 0.02 0.12 0.11 92 1015.0
20181120211505 58 0 0.0 2.0 0.02 0.11 0.09 92 1014.9
20181120211004 58 0 0.0 2.0 0.02 0.11 0.09 92 1015.0
20181120210504 58 0 0.0 2.0 0.02 0.11 0.09 92 1015.0
20181120210005 58 0 0.0 2.0 0.02 0.11 0.09 92 1014.9
20181120205504 58 0 0.0 1.0 0.04 0.11 0.09 92 1015.1
20181120205003 58 0 0.0 1.0 0.04 0.11 0.09 92 1015.1
20181120204504 58 0 0.0 1.0 0.04 0.09 0.08 92 1014.8
20181120204004 58 0 0.0 1.0 0.04 0.09 0.08 92 1014.8
20181120203503 57 0 0.0 1.0 0.04 0.09 0.08 92 1014.6
20181120203004 58 0 0.0 1.0 0.05 0.09 0.08 92 1015.0
20181120202504 58 0 0.0 1.0 0.05 0.09 0.08 92 1015.1
20181120202003 58 0 0.0 1.0 0.05 0.09 0.08 92 1015.0
20181120201505 58 0 0.0 1.0 0.04 0.08 0.07 92 1015.1
20181120201004 58 0 0.0 1.0 0.04 0.08 0.07 92 1015.2
20181120200504 58 0 0.0 1.0 0.04 0.08 0.07 92 1015.3
20181120200005 58 0 0.0 1.0 0.04 0.08 0.07 92 1015.2
20181120195504 58 0 0.0 1.0 0.02 0.07 0.06 92 1015.1
20181120195004 58 0 0.0 1.0 0.02 0.07 0.06 92 1015.2
20181120194504 58 0 0.0 1.0 0.01 0.06 0.05 92 1015.2
20181120194003 58 0 0.0 1.0 0.01 0.06 0.05 92 1015.2
20181120193504 58 0 0.0 1.0 0.02 0.06 0.05 92 1015.3
20181120193005 57 0 0.0 1.0 0.01 0.05 0.04 92 1015.1
20181120192503 57 0 0.0 1.0 0.01 0.05 0.04 91 1014.9
20181120192004 57 0 0.0 1.0 0.01 0.05 0.04 91 1014.9
20181120191505 57 0 0.0 1.0 0.01 0.05 0.04 91 1014.8
20181120191004 57 0 0.0 1.0 0.01 0.05 0.04 91 1014.4
20181120190503 57 0 0.0 2.0 0.01 0.05 0.04 91 1014.8
20181120190005 57 0 0.0 2.0 0.01 0.05 0.04 91 1015.0
20181120185504 57 0 0.0 2.0 0.01 0.05 0.04 91 1015.2
20181120185003 57 132 0.0 2.0 0.01 0.05 0.04 91 1015.5
20181120184505 57 60 0.0 2.0 0.02 0.05 0.04 91 1015.2
20181120184004 57 28 0.0 2.0 0.02 0.05 0.04 91 1015.4
20181120183503 57 155 0.0 2.0 0.01 0.04 0.02 91 1015.3
20181120183005 58 172 0.0 2.0 0.01 0.04 0.02 90 1015.8
20181120182504 58 0 0.0 2.0 0.01 0.04 0.02 90 1015.6
20181120182003 58 0 0.0 2.0 0.01 0.04 0.02 91 1015.7
20181120181505 58 0 0.0 2.0 0.01 0.04 0.02 91 1015.4
20181120181004 58 0 0.0 2.0 0.01 0.04 0.02 91 1015.7
20181120180503 58 0 0.0 1.0 0.01 0.04 0.02 91 1015.7
20181120180005 58 0 0.0 1.0 0.02 0.04 0.02 91 1015.7
20181120175504 59 0 0.0 1.0 0.02 0.04 0.02 90 1015.6
20181120175003 59 0 0.0 1.0 0.02 0.04 0.02 90 1015.8
20181120174504 59 0 0.0 1.0 0.01 0.02 0.01 90 1016.2
20181120174004 59 0 0.0 1.0 0.01 0.02 0.01 89 1016.2
20181120173504 59 0 0.0 1.0 0.01 0.02 0.01 89 1016.2
20181120173005 59 0 0.0 1.0 0.01 0.02 0.01 89 1016.4
20181120172504 59 0 0.0 1.0 0.01 0.02 0.01 88 1016.5
20181120172004 59 0 0.0 1.0 0.01 0.02 0.01 88 1016.4
20181120171504 59 0 0.0 1.0 0.01 0.02 0.01 88 1016.3
20181120171005 59 0 0.0 2.0 0.01 0.02 0.01 86 1016.4
20181120170504 59 0 0.0 2.0 0.01 0.02 0.01 86 1016.5
20181120170004 59 0 0.0 1.0 0.00 0.01 0.00 86 1016.6
20181120165504 59 17 0.0 3.0 0.00 0.01 0.00 86 1016.4
20181120165004 59 10 0.0 3.0 0.00 0.01 0.00 86 1016.3
20181120164504 59 0 0.0 1.0 0.00 0.01 0.00 85 1016.4
20181120164003 59 0 0.0 1.0 0.00 0.01 0.00 85 1016.0
20181120163504 59 0 0.0 1.0 0.00 0.01 0.00 85 1016.2
20181120163005 59 0 0.0 1.0 0.00 0.01 0.00 85 1016.0
20181120162503 59 0 0.0 2.0 0.01 0.01 0.00 85 1016.3
20181120162004 59 0 0.0 2.0 0.01 0.01 0.00 84 1016.2
20181120161505 59 0 0.0 1.0 0.01 0.01 0.00 84 1016.2
20181120161003 59 0 0.0 2.0 0.01 0.01 0.00 84 1016.4
20181120160504 59 0 0.0 2.0 0.01 0.01 0.00 84 1016.3
20181120160006 59 0 0.0 2.0 0.01 0.01 0.00 84 1016.5
20181120155503 59 0 0.0 2.0 0.01 0.01 0.01 83 1016.6
20181120155003 59 0 0.0 2.0 0.01 0.01 0.01 83 1016.7
20181120154506 59 0 0.0 2.0 0.01 0.01 0.01 83 1016.8
20181120154003 60 0 0.0 2.0 0.01 0.01 0.01 82 1016.7
20181120153504 60 0 0.0 2.0 0.01 0.01 0.01 82 1016.7
20181120153005 60 0 0.0 2.0 0.01 0.01 0.01 82 1016.7
20181120152504 60 83 0.0 2.0 0.00 0.00 0.00 81 1016.8
20181120152003 60 113 0.0 2.0 0.00 0.00 0.00 81 1017.0
20181120151505 60 0 0.0 1.0 0.00 0.00 0.00 80 1016.9
20181120151004 60 0 0.0 1.0 0.00 0.00 0.00 80 1017.1
20181120150504 60 0 0.0 2.0 0.00 0.00 0.00 79 1016.9
20181120150005 60 0 0.0 2.0 0.00 0.00 0.00 79 1016.9
20181120145504 60 0 0.0 1.0 0.00 0.00 0.00 78 1017.0
20181120145003 61 0 0.0 1.0 0.00 0.00 0.00 77 1017.0
20181120144505 61 0 0.0 1.0 0.00 0.00 0.00 75 1017.0
20181120144004 61 0 0.0 2.0 0.00 0.00 0.00 75 1016.9
20181120143504 61 142 0.0 3.0 0.00 0.00 0.00 74 1017.0
20181120143006 61 149 0.0 3.0 0.00 0.00 0.00 73 1017.0
20181120142504 62 139 0.0 4.0 0.00 0.00 0.00 72 1017.1
20181120142004 62 127 0.0 4.0 0.00 0.00 0.00 72 1017.0
20181120141505 62 0 0.0 2.0 0.00 0.00 0.00 71 1016.9
20181120141004 62 0 0.0 2.0 0.00 0.00 0.00 71 1017.0
20181120140504 62 0 0.0 2.0 0.00 0.00 0.00 71 1016.8
20181120140005 62 144 0.0 3.0 0.00 0.00 0.00 71 1017.0
20181120135504 62 156 0.0 3.0 0.00 0.00 0.00 71 1016.9
20181120135004 62 0 0.0 2.0 0.00 0.00 0.00 71 1017.0
20181120134504 62 0 0.0 3.0 0.00 0.00 0.00 71 1016.7
20181120134004 62 0 0.0 3.0 0.00 0.00 0.00 71 1017.1
20181120133504 62 0 0.0 2.0 0.00 0.00 0.00 71 1016.8
20181120133005 62 0 0.0 1.0 0.00 0.00 0.00 71 1016.8
20181120132504 62 0 0.0 2.0 0.00 0.00 0.00 71 1016.8
20181120132004 62 162 0.0 3.0 0.00 0.00 0.00 71 1017.0
20181120131505 62 143 0.0 3.0 0.00 0.00 0.00 70 1017.0
20181120131003 62 91 0.0 3.0 0.00 0.00 0.00 70 1016.8
20181120130503 62 0 0.0 2.0 0.00 0.00 0.00 71 1017.1
20181120130005 62 0 0.0 2.0 0.00 0.00 0.00 71 1017.0
20181120125503 62 0 0.0 2.0 0.00 0.00 0.00 71 1017.1
20181120125003 62 156 0.0 4.0 0.00 0.00 0.00 71 1017.0
20181120124505 62 145 0.0 4.0 0.00 0.00 0.00 71 1017.1
20181120124004 62 119 0.0 2.0 0.00 0.00 0.00 71 1017.1
20181120123503 62 0 0.0 2.0 0.00 0.00 0.00 71 1017.0
20181120123005 62 114 0.0 2.0 0.00 0.00 0.00 71 1017.1
20181120122504 62 100 0.0 2.0 0.00 0.00 0.00 71 1017.0
20181120122004 62 284 0.0 2.0 0.00 0.00 0.00 71 1017.3
20181120121505 62 123 0.0 2.0 0.00 0.00 0.00 71 1017.2
20181120121004 62 0 0.0 2.0 0.00 0.00 0.00 71 1017.1
20181120120503 62 0 0.0 2.0 0.00 0.00 0.00 71 1017.3
20181120120005 62 0 0.0 2.0 0.00 0.00 0.00 71 1017.2
20181120115504 62 0 0.0 2.0 0.00 0.00 0.00 71 1017.2
20181120115004 62 0 0.0 2.0 0.00 0.00 0.00 71 1017.3
20181120114505 62 0 0.0 2.0 0.00 0.00 0.00 71 1017.4
20181120114003 62 0 0.0 2.0 0.00 0.00 0.00 71 1017.4
20181120113504 62 0 0.0 2.0 0.00 0.00 0.00 71 1017.3